DELTA 1 DEB

Satellite information

Favourite Embed

Satellite Type and Status

DEBRISIN ORBIT

Key statistics

Satellite DELTA 1 DEB at a glance.

Uptime

17354

Days in orbit

Revolutions

≈ 14.4

Per day

Orbit

SSO

Sun Synchronous Orbit

Inclination

98.7

Latest

Satellite identification and parameters

Extended collection of information and parameters for DELTA 1 DEB.

Object identification

Identified? True

Debris? True

Object name: DELTA 1 DEB

International designator: 1978-026EZ

Object number (NORAD): 13562

Object ID (CCSDS): 13562

Country: UNITED STATES OF AMERICA (US)

Current information (Y/N): Y

RCS size: SMALL

Orbital parameters

Period: 100.31 minutes

Inclination: 98.7309 deg

SMA: 7151.374 km

Apoapsis: 798.234 km

Periapsis: 748.244 km

RAAN: 275.9656 deg

Eccentricy: 0.00349514

Argument of periapsis: 197.244 deg

Mean anomaly: 228.5219 deg

Mean motion: 14.3555065 rev/day

Mean motion (dot): 0.00001784 rev/day2

B* drag term: 0.00063104282 1/REarth

Two-line elements (TLE)

Creation date: Sept. 7, 2025, 3:09 a.m.

Reference frame: TEME

Reference center: EARTH

Epoch: Sept. 6, 2025, 11:13 p.m. UTC

TLE line 0: 0 DELTA 1 DEB

TLE line 1: 1 13562U 78026EZ 25249.96797560 .00001784 00000-0 63104-3 0 9998

TLE line 2: 2 13562 98.7309 275.9656 0034951 197.2440 228.5219 14.35550650313374

Live tracking on map

Real-time ground track for satellite DELTA 1 DEB.

In-orbit conjunctions

A list of the most updated potential collisions computed for object DELTA 1 DEB.

Target Orbit TCA Probability of collision Miss distance Type
CZ-2D DEB SSO 2024-09-10 16:20:20 0.000140115 43.0 (m) DEBRIS

Associated space launch

Earth observation satellite

DELTA 1 DEB was lifted into orbit during the mission ‘Delta 2910 | Landsat 3’, on board a Delta 2910 space rocket.

The launch took place on March 5, 1978, 5:54 p.m. from Space Launch Complex 2W.

For more information about the launch, click the button.

Launch to space Delta 2910 | Landsat 3
Delta 2910 | Landsat 3

Agency: N/A

Status: Launch Successful

Launch date: March 5, 1978, 5:54 p.m. UTC

Rocket: Delta 2910

Launch pad: Space Launch Complex 2W

Location: Vandenberg SFB, CA, USA

...

Latest news about this satellite

There are no fresh news available about this satellite. Check back as we update our databases every day.


Newsletter sign-up

Weekly statistics, charts and insights to help you stay on top of the space industry.